Flag for U.S.A. Weather past 2 weeks in Lynchburg, Virginia, U.S.A.

Now
33 °F

Overcast.


Feels Like: 28 °F
Forecast: 25 / 39 °F
Wind: 6 mph from South

Location: Lynchburg Regional Airport

Current Time: Feb 26, 2015 at 6:27:54 PM

Latest Report: Feb 26, 2015 at 5:54 PM


Visibility: 10 mi

Pressure: 30.02 "Hg

Humidity: 82%

Dew point: 28 °F

Location of LynchburgLocation

Historic Weather in Lynchburg — Graph

°F

Lynchburg temperature yesterday

Maximum temperature yesterday: 39 °F (at 1:54 PM)
Minimum temperature yesterday: 17 °F (at 1:54 AM)
Average temperature yesterday: 30 °F

Past Weeks' High & Low Weather Summary

 TemperatureHumidityPressure
High50 °F (Feb 22, 1:54 PM)100% (Feb 21, 9:54 PM)30.51 "Hg (Feb 21, 9:54 PM)
Low-9 °F (Feb 20, 6:54 AM)20% (Feb 15, 2:54 PM)29.57 "Hg (Feb 14, 3:54 PM)
Average23 °F59%30.10 "Hg
* Reported Feb 11 4:54 PM — Feb 26 4:54 PM, Lynchburg, Weather by CustomWeather, © 2015

Note: Actual official high and low records may vary slightly from our data, if they occured in-between our weather recording intervals... More about our weather records

Advertising

Lynchburg weather history for previous 24 hours

 ConditionsComfort  
Time TempWeatherWind HumidityBarometerVisibility
4:54 PM
Thu, Feb 26
34 °FOvercast.5 mph76%29.99 "Hg10 mi
3:54 PM34 °FOvercast.5 mph76%29.96 "Hg10 mi
2:54 PM34 °FMore clouds than sun.3 mph73%29.93 "Hg10 mi
1:54 PM33 °FOvercast.No wind75%29.91 "Hg10 mi
12:54 PM33 °FMostly cloudy.6 mph72%29.92 "Hg10 mi
11:54 AM33 °FMostly cloudy.8 mph75%29.90 "Hg10 mi
10:54 AM32 °FMostly cloudy.16 mph75%29.87 "Hg10 mi
9:54 AM30 °FOvercast.13 mph85%29.88 "Hg10 mi
8:54 AM29 °FOvercast.13 mph93%29.87 "Hg10 mi
7:54 AM29 °FIce fog.10 mph93%29.85 "Hg5 mi
6:54 AM29 °FLight snow. Ice fog.9 mph96%29.83 "Hg4 mi
5:54 AM29 °FLight snow. Ice fog.10 mph96%29.81 "Hg2 mi
4:54 AM28 °FLight snow. Ice fog.10 mph100%29.81 "Hg1 mi
3:54 AM28 °FSnow. Ice fog.7 mph100%29.81 "Hg1 mi
2:54 AM29 °FSnow. Ice fog.7 mph100%29.81 "Hg1 mi
1:58 AM29 °FLight snow. Ice fog.8 mph100%29.80 "Hg1 mi
12:54 AM30 °FLight snow. Ice fog.5 mph96%29.85 "Hg1 mi
11:54 PM
Wed, Feb 25
35 °FOvercast.8 mph46%29.86 "Hg10 mi
10:54 PM35 °FOvercast.No wind46%29.90 "Hg10 mi
9:54 PM34 °FPassing clouds.No wind59%29.94 "Hg10 mi
8:54 PM35 °FClear.3 mph48%29.87 "Hg10 mi
7:54 PM33 °FPassing clouds.No wind70%29.94 "Hg10 mi
6:54 PM33 °FClear.No wind63%29.92 "Hg10 mi
Weather by CustomWeather, © 2015

See weather overviewHow to use our weather pages